Texarkana, AR

2:36 PM CDT on May 26, 2017 (GMT -0500)
Texarkana Regional-Webb

Weather History for KTXK - January, 2012

Change the Weather History Date:

Friday, January 20, 2012

  Actual Average Record
Temperature  
Mean Temperature 61 °F 44 °F  
Max Temperature 77 °F 54 °F 80 °F (1954)
Min Temperature 44 °F 34 °F 11 °F (1985)
Degree Days  
Heating Degree Days 4 21  
Month to date heating degree days 315 433  
Since 1 July heating degree days 1228 1500  
Cooling Degree Days 0 0  
Month to date cooling degree days 0 0  
Year to date cooling degree days 0 0  
Growing Degree Days 10 (Base 50)    
Moisture  
Dew Point 55 °F    
Average Humidity 75    
Maximum Humidity 100    
Minimum Humidity 50    
Precipitation  
Precipitation 0.00 in 0.10 in 1.79 in (1958)
Month to date precipitation 0.90 2.18  
Year to date precipitation 0.90 2.18  
Snow  
Snow 0.00 in - - ()
Month to date snowfall 0.0  
Since 1 July snowfall 0.0  
Snow Depth 0.00 in    
Sea Level Pressure  
Sea Level Pressure 29.82 in    
Wind  
Wind Speed 8 mph (SSE)    
Max Wind Speed 21 mph    
Max Gust Speed 29 mph    
Visibility 5 miles    
Events Fog    
T = Trace of Precipitation, MM = Missing Value Source: NWS Daily Summary

Daily Weather History Graph

Daily Weather History Graph

Search for Another Location

Airport or City:

Trip Planner

Search our weather history database for the weather conditions in past years. The results will help you decide how hot, cold, wet, or windy it might be!

Date:

Astronomy

Jan. 20, 2012 Rise Set
Actual Time 7:18 AM CST 5:35 PM CST
Civil Twilight 6:51 AM CST 6:02 PM CST
Nautical Twilight 6:21 AM CST 6:32 PM CST
Astronomical Twilight 5:51 AM CST 7:02 PM CST
Moon 4:53 AM CST (1/20) 3:11 PM CST (1/20)
Length of Visible Light 11h 10m
Length of Day
10h 16m
Waning Crescent, 8% of the Moon is Illuminated
Jan 20
Waning Crescent
Jan 23
New
Jan 30
First Quarter
Feb 7
Full
Feb 14
Last Quarter

Hourly Weather History & Observations

Time (CST) Temp. Windchill Dew Point Humidity Pressure Visibility Wind Dir Wind Speed Gust Speed Precip Events Conditions
12:41 AM 48.2 °F - 48.2 °F 100% 29.89 in 2.5 mi East 4.6 mph - N/A   Clear
12:51 AM 48.2 °F - 48.2 °F 100% 29.89 in 1.8 mi East 3.5 mph - N/A   Partly Cloudy
12:53 AM 48.9 °F - 48.9 °F 100% 29.88 in 1.5 mi Calm Calm - N/A   Partly Cloudy
12:55 AM 48.2 °F - 48.2 °F 100% 29.89 in 1.0 mi Calm Calm - N/A   Mist
1:03 AM 48.2 °F - 48.2 °F 100% 29.88 in 0.5 mi ESE 3.5 mph - N/A Fog Fog
1:35 AM 46.4 °F - 46.4 °F 100% 29.88 in 0.5 mi Calm Calm - N/A Fog Fog
1:53 AM 45.0 °F 43.5 °F 45.0 °F 100% 29.87 in 0.5 mi ENE 3.5 mph - N/A Fog Fog
2:14 AM 46.4 °F 44.3 °F 46.4 °F 100% 29.88 in 0.2 mi ENE 4.6 mph - N/A Fog Fog
2:53 AM 46.9 °F - 46.9 °F 100% 29.86 in 0.2 mi Calm Calm - N/A Fog Fog
3:17 AM 48.2 °F - 48.2 °F 100% 29.86 in 0.5 mi ESE 5.8 mph - N/A Fog Fog
3:51 AM 50.0 °F - 50.0 °F 100% 29.84 in 1.2 mi ESE 4.6 mph - N/A   Overcast
3:52 AM 50.0 °F - 50.0 °F 100% 29.84 in 1.2 mi SE 4.6 mph - N/A   Overcast
3:59 AM 51.8 °F - 51.8 °F 100% 29.84 in 2.0 mi ESE 4.6 mph - N/A   Overcast
4:22 AM 48.2 °F - 48.2 °F 100% 29.83 in 1.5 mi Calm Calm - N/A   Overcast
4:39 AM 51.8 °F - 51.8 °F 100% 29.83 in 2.0 mi ESE 3.5 mph - N/A   Overcast
4:47 AM 51.8 °F - 51.8 °F 100% 29.83 in 1.8 mi ESE 3.5 mph - N/A   Overcast
4:48 AM 51.1 °F - 51.1 °F 100% 29.82 in 1.8 mi ESE 3.5 mph - N/A   Overcast
4:56 AM 51.8 °F - 51.8 °F 100% 29.83 in 0.8 mi ESE 3.5 mph - N/A   Mist
5:53 AM 55.0 °F - 55.0 °F 100% 29.84 in 0.8 mi SSE 5.8 mph - N/A   Mist
6:05 AM 55.4 °F - 55.4 °F 100% 29.84 in 1.0 mi SSE 4.6 mph - N/A   Mist
6:20 AM 55.4 °F - 55.4 °F 100% 29.84 in 1.5 mi SSE 5.8 mph - N/A   Overcast
6:53 AM 55.9 °F - 55.9 °F 100% 29.83 in 2.0 mi South 8.1 mph - N/A   Overcast
7:21 AM 57.2 °F - 57.2 °F 100% 29.84 in 3.0 mi South 5.8 mph - N/A   Overcast
7:53 AM 57.9 °F - 57.9 °F 100% 29.84 in 2.5 mi SSE 5.8 mph - N/A   Overcast
8:10 AM 57.2 °F - 57.2 °F 100% 29.84 in 3.0 mi SE 6.9 mph - N/A   Overcast
8:53 AM 60.1 °F - 60.1 °F 100% 29.84 in 4.0 mi South 9.2 mph - N/A   Overcast
9:15 AM 60.8 °F - 60.8 °F 100% 29.85 in 4.0 mi South 10.4 mph - N/A   Overcast
9:53 AM 62.1 °F - 61.0 °F 96% 29.84 in 5.0 mi South 9.2 mph - N/A   Overcast
10:01 AM 62.6 °F - 60.8 °F 94% 29.85 in 6.0 mi South 9.2 mph - N/A   Overcast
10:21 AM 62.6 °F - 62.6 °F 100% 29.84 in 8.0 mi South 10.4 mph 18.4 mph N/A   Overcast
10:53 AM 64.0 °F - 61.0 °F 90% 29.83 in 10.0 mi South 9.2 mph - N/A   Overcast
11:24 AM 66.2 °F - 60.8 °F 83% 29.80 in 10.0 mi South 12.7 mph 21.9 mph N/A   Overcast
11:53 AM 68.0 °F - 61.0 °F 78% 29.78 in 10.0 mi SSW 13.8 mph - N/A   Overcast
12:28 PM 71.6 °F - 60.8 °F 69% 29.75 in 10.0 mi SW 11.5 mph - N/A   Mostly Cloudy
12:49 PM 73.4 °F - 59.0 °F 61% 29.74 in 10.0 mi WSW 13.8 mph 23.0 mph N/A   Scattered Clouds
12:53 PM 73.9 °F - 59.0 °F 59% 29.73 in 10.0 mi SSW 15.0 mph - N/A   Scattered Clouds
1:53 PM 75.9 °F - 57.0 °F 52% 29.71 in 10.0 mi SSW 17.3 mph 23.0 mph N/A   Clear
2:53 PM 75.9 °F - 57.0 °F 52% 29.69 in 10.0 mi South 11.5 mph 23.0 mph N/A   Clear
3:53 PM 75.0 °F - 55.9 °F 51% 29.70 in 10.0 mi SSW 10.4 mph 20.7 mph N/A   Clear
4:53 PM 75.0 °F - 57.0 °F 53% 29.70 in 10.0 mi SSW 11.5 mph - N/A   Clear
5:53 PM 72.0 °F - 57.9 °F 61% 29.68 in 10.0 mi South 11.5 mph - N/A   Clear
6:53 PM 71.1 °F - 57.9 °F 63% 29.73 in 10.0 mi SSW 10.4 mph 19.6 mph N/A   Clear
7:53 PM 70.0 °F - 57.9 °F 65% 29.75 in 10.0 mi SSW 10.4 mph - N/A   Clear
8:53 PM 66.0 °F - 57.9 °F 75% 29.77 in 10.0 mi SSW 6.9 mph - N/A   Clear
9:53 PM 64.9 °F - 59.0 °F 81% 29.79 in 10.0 mi SSW 3.5 mph - N/A   Mostly Cloudy
10:53 PM 64.0 °F - 59.0 °F 84% 29.80 in 10.0 mi SW 4.6 mph - N/A   Mostly Cloudy
11:50 PM 64.4 °F - 60.8 °F 88% 29.83 in 10.0 mi South 5.8 mph - N/A   Mostly Cloudy
11:53 PM 64.9 °F - 60.1 °F 84% 29.82 in 10.0 mi South 5.8 mph - N/A   Mostly Cloudy